sat.trackr.live / text

‹ back to catalog

CAS500-2 RIDESHARE OBJE*

NORAD 69011 · 2026-100AH

PAYLOAD ACTIVE UNKNOWN

§ Identity

Operator
Country
TBD
Launch date
2026-05-03
Launch site
AFWTR
Launch vehicle
Mass (kg)
RCS (m²)

External: N2YO · Heavens-Above · Gunter

§ Orbital elements

Epoch: 2026-05-25T04:25:34.091040Z

Period
94.71 min
Inclination
97.4072°
Eccentricity
0.0006423
Mean motion
15.20392835 rev/d
Perigee alt
500.2 km
Apogee alt
509.1 km
Semi-major
6,882.8 km
B*
2.0516e-4
RAAN
43.4283°
Arg perigee
107.7340°
Mean anomaly
252.4597°
Rev number
331

§ Raw data

CAS500-2 RIDESHARE OBJE*1 69011U 26100AH  26145.18442235  .00004403  00000+0  20516-3 0  99902 69011  97.4072  43.4283 0006423 107.7340 252.4597 15.20392835  3318

JSON: /api/v1/satellites/69011 · /tle

For live sub-satellite position, see the globe view (requires WebGL).

§ Visibility from observer

Set your observer location to see the next 7 days of passes ≥ 10°. The values pass through the URL so the page stays shareable.

No JS? Fill the form by hand. The geolocation button needs JavaScript.